Paducah, KY

9:22 AM CDT on March 30, 2017 (GMT -0500)
Barkley Regional

Weather History for KPAH - March, 2013

Change the Weather History Date:

Tuesday, March 5, 2013

  Actual Average Record
Temperature  
Mean Temperature 40 °F 45 °F  
Max Temperature 47 °F 55 °F 78 °F (1938)
Min Temperature 33 °F 35 °F -2 °F (1960)
Degree Days  
Heating Degree Days 25 20  
Month to date heating degree days 141 104  
Since 1 July heating degree days 3252 3400  
Cooling Degree Days 0 0  
Month to date cooling degree days 0 0  
Year to date cooling degree days 0 0  
Moisture  
Dew Point 34 °F    
Average Humidity 77    
Maximum Humidity 100    
Minimum Humidity 54    
Precipitation  
Precipitation 0.13 in 0.12 in 3.29 in (1939)
Month to date precipitation 0.26 0.57  
Year to date precipitation 12.01 8.16  
Snow  
Snow T in 0.00 in T in (2013)
Month to date snowfall 0.6 0.2  
Since 1 July snowfall 6.7 8.7  
Snow Depth 0.00 in    
Sea Level Pressure  
Sea Level Pressure 29.89 in    
Wind  
Wind Speed 11 mph (WNW)    
Max Wind Speed 24 mph    
Max Gust Speed 36 mph    
Visibility 6 miles    
Events Rain , Snow    
T = Trace of Precipitation, MM = Missing Value Source: NWS Daily Summary

Daily Weather History Graph

Daily Weather History Graph

Search for Another Location

Airport or City:

Trip Planner

Search our weather history database for the weather conditions in past years. The results will help you decide how hot, cold, wet, or windy it might be!

Date:

Astronomy

Mar. 05, 2013 Rise Set
Actual Time 6:20 AM CST 5:53 PM CST
Civil Twilight 5:54 AM CST 6:19 PM CST
Nautical Twilight 5:24 AM CST 6:49 PM CST
Astronomical Twilight 4:53 AM CST 7:19 PM CST
Moon 1:26 AM CST (3/5) 11:38 AM CST (3/5)
Length of Visible Light 12h 25m
Length of Day
11h 33m
Last Quarter, 40% of the Moon is Illuminated
Mar 5
Last Quarter
Mar 11
New
Mar 19
First Quarter
Mar 27
Full
Apr 2
Last Quarter

Hourly Weather History & Observations

Time (CST) Temp. Windchill Dew Point Humidity Pressure Visibility Wind Dir Wind Speed Gust Speed Precip Events Conditions
1:53 AM 46.0 °F 44.8 °F 43.0 °F 89% 29.77 in 10.0 mi East 3.5 mph - 0.01 in   Overcast
2:53 AM 46.4 °F 42.4 °F 42.8 °F 87% 29.75 in 10.0 mi SE 8.1 mph - N/A   Overcast
3:53 AM 46.0 °F - 42.1 °F 86% 29.75 in 10.0 mi Calm Calm - N/A   Clear
4:53 AM 43.0 °F - 41.0 °F 93% 29.77 in 5.0 mi Calm Calm - N/A   Partly Cloudy
5:05 AM 41.0 °F - 39.2 °F 93% 29.77 in 2.5 mi Calm Calm - N/A   Clear
5:19 AM 41.0 °F - 39.2 °F 93% 29.77 in 1.5 mi Calm Calm - N/A   Clear
5:35 AM 42.8 °F - 41.0 °F 93% 29.76 in 3.0 mi Calm Calm - N/A   Partly Cloudy
5:46 AM 41.0 °F - 41.0 °F 100% 29.76 in 1.8 mi Calm Calm - N/A   Clear
5:53 AM 43.0 °F - 42.1 °F 97% 29.77 in 1.5 mi Calm Calm - N/A   Partly Cloudy
5:58 AM 42.8 °F - 42.8 °F 100% 29.77 in 3.0 mi Calm Calm - N/A   Partly Cloudy
6:53 AM 42.8 °F 40.1 °F 42.8 °F 100% 29.77 in 4.0 mi WNW 4.6 mph - N/A   Mostly Cloudy
7:53 AM 45.0 °F - 43.0 °F 93% 29.78 in 5.0 mi Calm Calm - 0.01 in Rain Light Rain
8:53 AM 45.0 °F 38.9 °F 41.0 °F 86% 29.80 in 6.0 mi NW 12.7 mph - 0.01 in Rain Light Rain
9:36 AM 44.6 °F 37.4 °F 39.2 °F 81% 29.81 in 8.0 mi NW 16.1 mph 23.0 mph 0.01 in Rain Light Rain
9:53 AM 43.0 °F 37.2 °F 39.0 °F 86% 29.81 in 8.0 mi NW 10.4 mph 20.7 mph 0.01 in Rain Light Rain
10:10 AM 42.8 °F 34.5 °F 37.4 °F 81% 29.82 in 6.0 mi NW 18.4 mph 27.6 mph 0.00 in Rain Light Rain
10:53 AM 39.0 °F 29.0 °F 34.0 °F 82% 29.83 in 8.0 mi NNW 20.7 mph 27.6 mph 0.00 in Rain Light Rain
11:06 AM 37.4 °F 28.2 °F 33.8 °F 87% 29.85 in 10.0 mi NW 16.1 mph 29.9 mph 0.00 in   Overcast
11:25 AM 35.6 °F 25.9 °F 32.0 °F 87% 29.88 in 2.0 mi WNW 16.1 mph 23.0 mph 0.01 in Snow Light Snow
11:32 AM 35.6 °F 27.1 °F 32.0 °F 87% 29.89 in 1.8 mi WNW 12.7 mph - 0.02 in Snow Light Snow
11:42 AM 33.8 °F 26.4 °F 32.0 °F 93% 29.89 in 0.8 mi WNW 9.2 mph - 0.04 in Snow Light Snow
11:53 AM 33.1 °F 24.9 °F 32.0 °F 96% 29.90 in 1.2 mi WNW 10.4 mph - 0.05 in Snow Light Snow
12:04 PM 33.8 °F 24.8 °F 32.0 °F 93% 29.89 in 2.5 mi WNW 12.7 mph - 0.00 in Snow Light Snow
12:15 PM 33.8 °F 25.3 °F 32.0 °F 93% 29.90 in 1.0 mi WNW 11.5 mph - 0.01 in Snow Light Snow
12:39 PM 35.6 °F 27.5 °F 33.8 °F 93% 29.90 in 3.0 mi WNW 11.5 mph 21.9 mph 0.02 in Snow Light Snow
12:53 PM 35.1 °F 24.8 °F 32.0 °F 89% 29.91 in 5.0 mi WNW 17.3 mph 21.9 mph 0.02 in Snow Light Snow
1:01 PM 35.6 °F 25.5 °F 32.0 °F 87% 29.90 in 8.0 mi WNW 17.3 mph 24.2 mph 0.00 in   Overcast
1:53 PM 36.0 °F 25.6 °F 32.0 °F 86% 29.92 in 9.0 mi WNW 18.4 mph 25.3 mph 0.00 in   Overcast
2:02 PM 37.4 °F 27.8 °F 32.0 °F 81% 29.91 in 8.0 mi WNW 17.3 mph 31.1 mph N/A   Overcast
2:16 PM 37.4 °F 28.5 °F 32.0 °F 81% 29.92 in 9.0 mi WNW 15.0 mph 25.3 mph N/A   Overcast
2:53 PM 37.9 °F 28.9 °F 30.9 °F 76% 29.94 in 10.0 mi WNW 16.1 mph 29.9 mph N/A   Overcast
3:53 PM 39.0 °F 32.3 °F 28.9 °F 67% 29.96 in 10.0 mi NW 10.4 mph 23.0 mph N/A   Overcast
4:53 PM 39.0 °F 31.0 °F 27.0 °F 62% 29.99 in 10.0 mi West 13.8 mph 25.3 mph N/A   Overcast
5:53 PM 37.9 °F 27.6 °F 23.0 °F 55% 30.02 in 10.0 mi NW 20.7 mph 31.1 mph N/A   Overcast
6:53 PM 34.0 °F 23.0 °F 19.9 °F 56% 30.06 in 10.0 mi West 18.4 mph 27.6 mph N/A   Partly Cloudy
7:53 PM 34.0 °F 23.4 °F 21.0 °F 59% 30.06 in 10.0 mi West 17.3 mph 23.0 mph N/A   Overcast
8:53 PM 34.0 °F 24.6 °F 21.0 °F 59% 30.06 in 10.0 mi WNW 13.8 mph 20.7 mph N/A   Overcast
9:53 PM 34.0 °F 22.7 °F 23.0 °F 64% 30.07 in 10.0 mi WNW 19.6 mph 29.9 mph N/A   Overcast
10:53 PM 34.0 °F 23.4 °F 24.1 °F 67% 30.08 in 10.0 mi WNW 17.3 mph 28.8 mph N/A   Overcast
11:53 PM 34.0 °F 24.6 °F 24.1 °F 67% 30.09 in 10.0 mi NW 13.8 mph 25.3 mph N/A   Overcast